Tracking 28052 objects as of 25-Sep-2023
HD Live streaming from Space Station
objects crossing your sky now

TITAN 3C TRANSTAGE R/B

Track TITAN 3C TRANSTAGE R/B now!


NORAD ID: 12371
Int'l Code: 1981-025C
Perigee: 35,275.2 km
Apogee: 35,722.5 km
Inclination: 8.9 °
Period: 1,421.1 minutes
Semi major axis: 41869 km
RCS: Unknown
Launch date: March 16, 1981
Source: United States (US)
Launch site: AIR FORCE EASTERN TEST RANGE (AFETR)

Note: This is a ROCKET BODY
Your satellite tracking list
Your tracking list is empty




NASA's NSSDC Master Catalog

Two Line Element Set (TLE):
1 12371U 81025C   23268.43323643 -.00000057  00000-0  00000-0 0  9992
2 12371   8.8773 307.0374 0053412 298.7458  60.6779  1.01333029 16959
Source of the keplerian elements: McCants